Find FLTSATCOM F1

NORAD ID: 10669 Int'l Des: 1978-016 Owner: USNESC/SAMSO Country: US operational
HEOCIRCULAR

实时位置

正在加载3D地球...

关于 FLTSATCOM F1

正在加载描述...

即将过境

Passes for default location (London). Set your location on the main map for personalized predictions.

高度历史

Loading altitude history...

两行轨道根数

1 10669U 78016A 26118.77205817 -.00000248 00000-0 00000+0 0 9993
2 10669 7.2319 291.9167 0006165 266.0841 278.8761 0.99006578754083
Epoch: Apr 28, 2026 • Age: 12 hours

当前状态

高度 36148.6 km
速度 3.06 km/s
星下点 0.68°N, 20.08°W
发射日期 Feb 9, 1978
运行时间 48.2 years
类型 other

技术详情

分类 Payload
质量 942.00 kg
干质量 822.00 kg
总质量 1876.00 kg
长度 1.30 m
直径 2.40 m
跨度 13.20 m
形状 Hex Cyl + Dish + 2 Pan
制造商 TRW
平台类型 FLTSATCOM
阶段状态 In Orbit
所有者/国家 USNESC/SAMSO/US

Most Searched